This is the latest recevied weather packets stored in our database for station/object KY4JDC. If no packets are shown the sender has not sent any weather packets the latest 10 day(s).
| Time | Temp. | Humidity | Pressure | Rain* | Wind** | Luminosity | Snow |
|---|---|---|---|---|---|---|---|
| 1787405240 | 23.33° C | 87% | 1018.1 hPa | 0 mm | - | 82 W/m² | - |
| 1787404938 | 23.33° C | 87% | 1018 hPa | 0 mm | - | 75 W/m² | - |
| 1787404633 | 23.33° C | 86% | 1018.3 hPa | 0 mm | - | 66 W/m² | - |
| 1787404332 | 23.33° C | 87% | 1018.2 hPa | 0 mm | - | 64 W/m² | - |
| 1787404027 | 22.78° C | 88% | 1018.2 hPa | 0 mm | - | 68 W/m² | - |
| 1787403723 | 22.78° C | 89% | 1018.2 hPa | 0 mm | - | 82 W/m² | - |
| 1787403422 | 22.22° C | 89% | 1018 hPa | 0 mm | - | 71 W/m² | - |
| 1787403118 | 22.22° C | 90% | 1018.3 hPa | 0 mm | - | 59 W/m² | - |
| 1787402814 | 22.22° C | 90% | 1018.1 hPa | 0 mm | - | 57 W/m² | - |
| 1787402514 | 21.67° C | 91% | 1018.1 hPa | 0 mm | - | 59 W/m² | - |
| 1787402213 | 21.67° C | 92% | 1018.1 hPa | 0 mm | - | 46 W/m² | - |
| 1787401909 | 21.11° C | 93% | 1018 hPa | 0 mm | - | 44 W/m² | - |
| 1787401605 | 21.11° C | 93% | 1018.2 hPa | 0 mm | - | 40 W/m² | - |
| 1787401300 | 21.11° C | 94% | 1018.2 hPa | 0 mm | - | 38 W/m² | - |
| 1787400995 | 20.56° C | 95% | 1018.1 hPa | 0 mm | - | 34 W/m² | - |
| 1787400690 | 20.56° C | 96% | 1018 hPa | 0 mm | - | 30 W/m² | - |
| 1787400386 | 20.56° C | 96% | 1018.2 hPa | 0 mm | - | 26 W/m² | - |
| 1787400081 | 20° C | 96% | 1018.1 hPa | 0 mm | - | 23 W/m² | - |
| 1787399778 | 20° C | 96% | 1018 hPa | 0 mm | - | 21 W/m² | - |
| 1787399474 | 20° C | 96% | 1018.1 hPa | 0 mm | - | 18 W/m² | - |
| 1787399172 | 20° C | 96% | 1017.9 hPa | 0 mm | - | 15 W/m² | - |
| 1787398868 | 19.44° C | 96% | 1017.7 hPa | 0 mm | - | 12 W/m² | - |
| 1787398563 | 19.44° C | 96% | 1017.6 hPa | 0 mm | - | 8 W/m² | - |
| 1787398260 | 19.44° C | 96% | 1017.8 hPa | 0 mm | - | 6 W/m² | - |
| 1787397955 | 19.44° C | 96% | 1018 hPa | 0 mm | - | 4 W/m² | - |
* Rain latest hour (hover to see other rain measurements)
** Current wind speed in m/s (hover to see current wind gust speed)